User: anonymous   Login
Location: South Tamworth Observatory
(43.8246°N, 71.3026°W)
Time: 02:51:47
(UTC-04:00)
Language:

Cosmos 1844 - Orbit

View from above orbital plane
View from above orbital plane
View from above satellite
View from above satellite

Ground track
Ground track

The orbit data is extracted from the following two-line orbital elements,

1 17973U 87041A   16269.91759557 -.00000343 +00000-0 -15414-3 0  9999
2 17973 070.8961 110.5249 0030347 166.8860 193.3057 14.14036025515582
Epoch (UTC): 25 September 2016 22:01:20
Eccentricity: 0.0030347
inclination: 70.8961°
perigee height: 823 km
apogee height: 867 km
right ascension of ascending node: 110.5249°
argument of perigee: 166.8860°
revolutions per day: 14.14036025
mean anomaly at epoch: 193.3057°
orbit number at epoch: 51558

The dashed part of the orbit path shows where the satellite is in the earth's shadow,  

DLR